FW5890 Weather Reports


Display with metric or nautical units.
time (UTC)temp
F
wind
direction
speed
MPH
gust
MPH
rain 1hr
in
rain 24hr
in
rain mn
in
humidity
%
barometer
mb
20260903224501 87 287 2.0 11.0 0.00 0.03 0.03 67 1006.0
20260903224035 87 173 3.0 8.0 0.00 0.03 0.03 67 1005.9
20260903223514 87 201 3.0 7.0 0.00 0.03 0.03 66 1005.9
20260903223058 87 136 4.0 8.0 0.00 0.03 0.03 65 1006.1
20260903222532 87 285 3.0 8.0 0.00 0.03 0.03 66 1006.0
20260903222101 87 221 3.0 9.0 0.00 0.03 0.03 65 1006.1
20260903221527 87 244 3.0 8.0 0.00 0.03 0.03 65 1006.2
20260903221050 87 255 2.0 7.0 0.00 0.03 0.03 65 1006.2
20260903220520 87 254 2.0 10.0 0.00 0.03 0.03 67 1006.1
20260903220048 87 171 4.0 8.0 0.00 0.03 0.03 66 1006.1
20260903215526 87 239 4.0 9.0 0.00 0.03 0.03 65 1006.3
20260903215004 87 228 3.0 10.0 0.00 0.03 0.03 65 1006.3
20260903214529 87 221 4.0 10.0 0.00 0.03 0.03 64 1006.3
20260903214044 87 161 3.0 8.0 0.00 0.03 0.03 66 1006.4
20260903213607 87 203 3.0 8.0 0.00 0.03 0.03 66 1006.5
20260903213041 87 239 3.0 9.0 0.00 0.03 0.03 68 1006.6
20260903212534 87 157 4.0 9.0 0.00 0.03 0.03 67 1006.5
20260903212102 87 175 2.0 9.0 0.00 0.03 0.03 67 1006.5
20260903211537 87 338 2.0 9.0 0.00 0.03 0.03 67 1006.6
20260903211107 87 163 4.0 10.0 0.00 0.03 0.03 67 1006.6
20260903210547 86 145 3.0 10.0 0.00 0.03 0.03 69 1006.4
20260903210025 85 204 3.0 8.0 0.00 0.03 0.03 69 1006.5
20260903205549 84 324 2.0 6.0 0.00 0.03 0.03 71 1006.6
20260903205028 84 277 3.0 7.0 0.00 0.03 0.03 70 1006.8
20260903204602 84 216 3.0 7.0 0.00 0.03 0.03 70 1007.1
20260903204014 84 194 2.0 8.0 0.00 0.03 0.03 70 1007.1
20260903203557 84 234 3.0 8.0 0.00 0.03 0.03 68 1007.1
20260903203039 85 166 2.0 8.0 0.01 0.03 0.03 67 1006.9
20260903202515 85 188 2.0 7.0 0.01 0.03 0.03 68 1007.0
20260903202007 85 178 3.0 7.0 0.01 0.03 0.03 66 1007.1
20260903201544 85 221 2.0 7.0 0.01 0.03 0.03 66 1007.0
20260903201014 86 236 3.0 9.0 0.01 0.03 0.03 66 1006.9
20260903200501 86 221 3.0 11.0 0.01 0.03 0.03 66 1007.1
20260903200039 86 235 3.0 11.0 0.01 0.03 0.03 65 1007.2
20260903195505 86 148 3.0 14.0 0.01 0.03 0.03 67 1007.3
20260903195102 86 228 4.0 14.0 0.01 0.03 0.03 67 1007.1
20260903194541 86 161 3.0 9.0 0.01 0.03 0.03 66 1007.3
20260903194030 87 209 4.0 9.0 0.01 0.03 0.03 65 1007.6
20260903193523 87 184 2.0 12.0 0.00 0.02 0.02 67 1007.6
20260903193016 87 261 5.0 12.0 0.00 0.02 0.02 67 1007.4
20260903192605 87 173 3.0 11.0 0.00 0.02 0.02 65 1007.4
20260903192038 87 295 4.0 11.0 0.00 0.02 0.02 66 1007.3
20260903191510 87 143 3.0 9.0 0.00 0.02 0.02 68 1007.3
20260903191017 86 167 3.0 7.0 0.00 0.02 0.02 68 1007.4
20260903190504 86 167 3.0 10.0 0.01 0.02 0.02 72 1007.5
20260903190100 85 319 3.0 10.0 0.01 0.02 0.02 71 1007.6
20260903185551 85 293 2.0 9.0 0.01 0.02 0.02 74 1007.6
20260903185109 84 275 2.0 9.0 0.01 0.02 0.02 73 1007.6
20260903184543 83 229 1.0 8.0 0.01 0.02 0.02 78 1007.6
20260903184018 82 255 2.0 8.0 0.01 0.02 0.02 80 1007.6
20260903183603 81 274 2.0 8.0 0.01 0.02 0.02 82 1007.6
20260903183038 80 298 2.0 7.0 0.01 0.02 0.02 86 1007.7
20260903182526 79 194 0.0 5.0 0.01 0.02 0.02 93 1007.7
20260903182008 78 270 2.0 5.0 0.01 0.02 0.02 91 1007.6
20260903181555 77 243 2.0 5.0 0.01 0.02 0.02 92 1007.7
20260903181031 77 240 1.0 4.0 0.01 0.02 0.02 92 1007.8
20260903180529 76 176 1.0 3.0 0.00 0.01 0.01 90 1007.9
20260903180045 77 151 0.0 2.0 0.00 0.01 0.01 91 1008.2
20260903175604 77 153 0.0 2.0 0.01 0.01 0.01 91 1008.3
20260903175012 77 154 0.0 6.0 0.01 0.01 0.01 90 1007.9
20260903174539 77 156 1.0 6.0 0.01 0.01 0.01 89 1007.7
20260903174118 77 150 2.0 5.0 0.01 0.01 0.01 88 1007.5
20260903173526 77 175 2.0 5.0 0.01 0.01 0.01 87 1007.9
20260903173001 77 157 1.0 5.0 0.01 0.01 0.01 88 1007.9
20260903172521 77 146 2.0 7.0 0.01 0.01 0.01 90 1007.9
20260903172041 77 178 2.0 7.0 0.01 0.01 0.01 91 1008.0
20260903171600 76 144 1.0 4.0 0.01 0.01 0.01 92 1008.1
20260903171124 75 157 1.0 4.0 0.01 0.01 0.01 91 1008.2
20260903170524 75 174 1.0 5.0 0.01 0.01 0.01 90 1008.4
20260903170052 75 161 1.0 3.0 0.01 0.01 0.01 89 1008.5
20260903165517 76 153 0.0 3.0 0.00 0.00 0.00 89 1008.9
20260903165039 76 149 1.0 5.0 0.00 0.00 0.00 88 1008.7
20260903164533 76 212 2.0 5.0 0.00 0.00 0.00 88 1008.5
20260903164053 76 175 1.0 3.0 0.00 0.00 0.00 87 1008.5
20260903163502 76 171 1.0 4.0 0.00 0.00 0.00 86 1008.6
20260903163047 77 157 1.0 4.0 0.00 0.00 0.00 85 1008.7
20260903162609 76 211 0.0 4.0 0.00 0.00 0.00 85 1008.7
20260903162020 77 193 2.0 4.0 0.00 0.00 0.00 85 1008.4
20260903161604 77 192 0.0 4.0 0.00 0.00 0.00 85 1008.5
20260903161011 77 296 2.0 5.0 0.00 0.00 0.00 85 1008.6
20260903160531 77 216 1.0 4.0 0.00 0.00 0.00 86 1008.7
20260903160006 76 178 1.0 5.0 0.00 0.01 0.00 87 1008.7
20260903155548 76 187 0.0 5.0 0.00 0.01 0.00 89 1008.7
20260903155015 75 161 1.0 3.0 0.00 0.01 0.00 89 1008.7
20260903154547 75 151 1.0 5.0 0.00 0.01 0.00 89 1008.5
20260903154102 74 150 0.0 5.0 0.00 0.01 0.00 89 1008.6
20260903153537 74 157 1.0 5.0 0.00 0.01 0.00 89 1008.5
20260903153011 74 153 1.0 5.0 0.00 0.01 0.00 88 1008.4
20260903152531 74 157 0.0 5.0 0.00 0.01 0.00 88 1008.6
20260903152054 74 138 1.0 4.0 0.00 0.01 0.00 87 1008.6
20260903151501 74 160 0.0 5.0 0.00 0.01 0.00 87 1008.7
20260903151036 75 164 1.0 5.0 0.00 0.01 0.00 85 1008.7
20260903150605 75 165 2.0 5.0 0.00 0.01 0.00 84 1008.7
20260903150057 75 186 2.0 4.0 0.00 0.01 0.00 82 1008.7
20260903145520 76 184 1.0 5.0 0.00 0.01 0.00 81 1008.5
20260903145055 76 148 1.0 4.0 0.00 0.01 0.00 80 1008.6
20260903144529 77 191 1.0 7.0 0.00 0.01 0.00 80 1008.6
20260903144051 77 159 2.0 5.0 0.00 0.01 0.00 80 1008.5
20260903143610 77 171 3.0 6.0 0.00 0.01 0.00 80 1008.4
20260903143054 77 188 1.0 4.0 0.00 0.01 0.00 81 1008.4
20260903142509 76 205 1.0 5.0 0.00 0.01 0.00 82 1008.4
20260903142037 76 165 1.0 5.0 0.00 0.01 0.00 81 1008.4
20260903141556 76 167 1.0 3.0 0.00 0.01 0.00 80 1008.5
20260903141018 77 173 0.0 3.0 0.00 0.01 0.00 81 1008.5
20260903140557 77 176 0.0 3.0 0.00 0.01 0.00 81 1008.5
20260903140013 76 186 0.0 3.0 0.00 0.01 0.00 81 1008.6
20260903135526 76 180 1.0 4.0 0.00 0.01 0.00 80 1008.5
20260903135047 76 190 1.0 4.0 0.00 0.01 0.00 82 1008.5
20260903134607 76 165 1.0 3.0 0.00 0.01 0.00 82 1008.5
20260903134027 75 171 0.0 4.0 0.00 0.01 0.00 84 1008.6
20260903133602 75 169 0.0 4.0 0.00 0.01 0.00 84 1008.7
20260903133011 74 153 0.0 5.0 0.00 0.01 0.00 85 1008.6
20260903132531 74 153 2.0 5.0 0.00 0.01 0.00 86 1008.6
20260903132050 73 173 1.0 3.0 0.00 0.01 0.00 86 1008.6
20260903131501 73 178 1.0 3.0 0.00 0.01 0.00 87 1008.7
20260903131044 73 182 0.0 3.0 0.00 0.01 0.00 87 1008.7
20260903130523 72 182 0.0 3.0 0.00 0.01 0.00 87 1008.6
20260903130059 72 186 0.0 2.0 0.00 0.01 0.00 88 1008.4
20260903125509 72 185 0.0 3.0 0.00 0.01 0.00 88 1008.4
20260903125056 72 180 0.0 3.0 0.00 0.01 0.00 88 1008.4
20260903124532 73 178 0.0 3.0 0.00 0.01 0.00 88 1008.3
20260903124048 73 167 0.0 4.0 0.00 0.01 0.00 88 1008.4
20260903123607 73 227 1.0 5.0 0.00 0.01 0.00 88 1008.4
20260903123016 73 171 1.0 5.0 0.00 0.01 0.00 88 1008.2
20260903122601 73 217 2.0 5.0 0.00 0.01 0.00 88 1007.8
20260903122011 73 167 1.0 4.0 0.00 0.01 0.00 89 1007.7
20260903121552 73 175 0.0 4.0 0.00 0.01 0.00 88 1007.9
20260903121000 73 171 0.0 4.0 0.00 0.01 0.00 88 1007.9
20260903120521 73 143 0.0 4.0 0.00 0.01 0.00 88 1008.0
20260903120048 73 137 0.0 4.0 0.00 0.01 0.00 88 1008.2
20260903115514 73 181 0.0 4.0 0.00 0.01 0.00 88 1008.2
20260903115057 73 185 1.0 8.0 0.00 0.01 0.00 89 1008.2
20260903114505 73 320 2.0 8.0 0.00 0.01 0.00 89 1008.5
20260903114029 74 188 1.0 8.0 0.00 0.01 0.00 90 1008.6
20260903113545 74 296 4.0 8.0 0.00 0.01 0.00 90 1008.9
20260903113105 74 338 2.0 8.0 0.00 0.01 0.00 91 1008.9
20260903112517 73 278 1.0 7.0 0.00 0.01 0.00 91 1008.9
20260903112036 73 258 3.0 7.0 0.00 0.01 0.00 92 1008.9
20260903111605 73 259 0.0 3.0 0.00 0.01 0.00 92 1008.8
20260903111033 73 273 0.0 4.0 0.00 0.01 0.00 92 1008.8
20260903110010 73 257 0.0 3.0 0.00 0.01 0.00 92 1008.6
20260903105546 73 257 0.0 3.0 0.00 0.01 0.00 93 1008.6
20260903105107 73 267 0.0 3.0 0.00 0.01 0.00 93 1008.7
20260903104556 73 268 0.0 3.0 0.00 0.01 0.00 93 1008.8
20260903104020 72 319 1.0 5.0 0.00 0.01 0.00 94 1008.8
20260903103541 72 178 1.0 6.0 0.00 0.01 0.00 94 1008.8
20260903102525 72 256 1.0 4.0 0.00 0.01 0.00 95 1009.1
20260903102059 72 256 0.0 3.0 0.00 0.01 0.00 95 1008.9
20260903101525 71 171 0.0 2.0 0.00 0.01 0.00 95 1008.6
20260903101049 71 171 0.0 3.0 0.00 0.01 0.00 95 1008.6
20260903100529 71 205 0.0 3.0 0.00 0.01 0.00 95 1008.4
20260903100050 71 224 0.0 3.0 0.00 0.01 0.00 95 1008.5
20260903095508 71 292 0.0 2.0 0.00 0.01 0.00 96 1008.8
20260903095049 71 296 0.0 2.0 0.00 0.01 0.00 96 1008.8
20260903094503 71 315 0.0 3.0 0.00 0.01 0.00 96 1008.9
20260903094044 71 325 0.0 3.0 0.00 0.01 0.00 96 1008.8
20260903093508 71 175 0.0 3.0 0.00 0.01 0.00 96 1008.7
20260903093045 71 175 0.0 3.0 0.00 0.01 0.00 96 1008.6
20260903092559 71 185 0.0 3.0 0.00 0.01 0.00 96 1008.6
20260903092035 71 182 0.0 2.0 0.00 0.01 0.00 96 1008.7
20260903091554 70 183 0.0 0.0 0.00 0.01 0.00 96 1008.6
20260903091011 70 183 0.0 0.0 0.00 0.01 0.00 96 1008.5
20260903090536 70 183 0.0 0.0 0.00 0.01 0.00 96 1008.4
20260903090019 70 183 0.0 0.0 0.00 0.01 0.00 96 1008.4
20260903085533 70 183 0.0 0.0 0.00 0.02 0.00 96 1008.4
20260903085057 70 183 0.0 0.0 0.00 0.02 0.00 96 1008.4
20260903084544 70 183 0.0 0.0 0.00 0.02 0.00 96 1008.3
20260903084030 70 183 0.0 0.0 0.00 0.02 0.00 96 1008.4
20260903083556 70 183 0.0 0.0 0.00 0.02 0.00 96 1008.4
20260903083055 70 183 0.0 0.0 0.00 0.02 0.00 95 1008.4
20260903082515 71 183 0.0 0.0 0.00 0.02 0.00 95 1008.4
20260903082004 71 183 0.0 0.0 0.00 0.02 0.00 95 1008.5
20260903081558 71 183 0.0 0.0 0.00 0.02 0.00 96 1008.5
20260903081033 71 183 0.0 0.0 0.00 0.02 0.00 96 1008.5
20260903080508 71 183 0.0 0.0 0.00 0.02 0.00 95 1008.5
20260903080046 71 183 0.0 0.0 0.00 0.02 0.00 95 1008.5
20260903075505 71 183 0.0 0.0 0.00 0.05 0.00 95 1008.7
20260903075027 71 183 0.0 0.0 0.00 0.05 0.00 95 1008.5
20260903074554 71 183 0.0 0.0 0.00 0.05 0.00 95 1008.6
20260903074033 71 183 0.0 0.0 0.00 0.05 0.00 95 1008.7
20260903073522 71 183 0.0 0.0 0.00 0.05 0.00 94 1008.6
20260903073047 71 183 0.0 0.0 0.00 0.05 0.00 95 1008.7
20260903072541 71 183 0.0 0.0 0.00 0.05 0.00 95 1008.8
20260903072104 71 183 0.0 0.0 0.00 0.05 0.00 95 1008.9
20260903071520 71 183 0.0 0.0 0.00 0.05 0.00 95 1009.0
20260903071057 71 183 0.0 0.0 0.00 0.05 0.00 95 1008.9
20260903070520 71 183 0.0 0.0 0.00 0.05 0.00 95 1008.9
20260903065505 72 183 0.0 0.0 0.00 0.07 0.00 95 1008.8
20260903065100 72 183 0.0 1.0 0.00 0.07 0.00 95 1008.9
20260903064520 71 183 0.0 1.0 0.00 0.07 0.00 95 1009.0
20260903064039 71 183 0.0 0.0 0.00 0.07 0.00 95 1009.1
20260903063518 71 183 0.0 0.0 0.00 0.07 0.00 94 1009.1
20260903063103 71 183 0.0 0.0 0.00 0.07 0.00 94 1009.1
20260903062521 71 183 0.0 0.0 0.00 0.07 0.00 94 1009.1
20260903062002 72 183 0.0 0.0 0.00 0.07 0.00 94 1009.1
20260903061546 72 183 0.0 0.0 0.00 0.07 0.00 94 1009.1
20260903061106 72 183 0.0 0.0 0.00 0.07 0.00 94 1009.1
20260903060516 72 183 0.0 0.0 0.00 0.07 0.00 94 1009.2
20260903060039 72 183 0.0 0.0 0.00 0.07 0.00 94 1009.1
20260903055513 72 183 0.0 0.0 0.00 0.08 0.00 94 1009.1
20260903055029 72 183 0.0 0.0 0.00 0.08 0.00 94 1009.2
20260903054508 72 183 0.0 0.0 0.00 0.08 0.00 94 1009.2
20260903054048 72 183 0.0 0.0 0.00 0.08 0.00 94 1009.2
20260903053610 72 183 0.0 0.0 0.00 0.08 0.00 94 1009.2
20260903053021 72 183 0.0 0.0 0.00 0.08 0.00 94 1009.2
20260903052538 72 183 0.0 0.0 0.00 0.08 0.00 95 1009.1
20260903052101 72 183 0.0 0.0 0.00 0.08 0.00 94 1009.1
20260903051508 72 183 0.0 0.0 0.00 0.08 0.00 94 1009.1
20260903051027 72 183 0.0 0.0 0.00 0.08 0.00 94 1009.2
20260903050502 72 183 0.0 0.0 0.00 0.08 0.00 94 1009.2
20260903050047 72 183 0.0 0.0 0.00 0.08 0.00 94 1009.2
20260903045520 72 183 0.0 0.0 0.00 0.08 0.08 94 1009.2
20260903045043 72 183 0.0 0.0 0.00 0.08 0.08 94 1009.3
20260903044600 72 183 0.0 0.0 0.00 0.08 0.08 94 1009.4
20260903044039 72 183 0.0 0.0 0.00 0.08 0.08 94 1009.3
20260903043507 72 183 0.0 0.0 0.00 0.08 0.08 94 1009.3
20260903043028 72 183 0.0 0.0 0.00 0.08 0.08 94 1009.4
20260903042550 72 183 0.0 0.0 0.00 0.08 0.08 94 1009.4
20260903042042 72 183 0.0 0.0 0.00 0.08 0.08 94 1009.3
20260903041600 72 183 0.0 0.0 0.00 0.08 0.08 93 1009.5
20260903041009 72 183 0.0 0.0 0.00 0.08 0.08 93 1009.5
20260903040554 72 183 0.0 0.0 0.00 0.08 0.08 93 1009.6
20260903040013 73 183 0.0 0.0 0.00 0.08 0.08 93 1009.5
20260903035605 73 183 0.0 0.0 0.00 0.08 0.08 93 1009.4
20260903035013 73 183 0.0 0.0 0.00 0.08 0.08 92 1009.6
20260903034558 73 183 0.0 0.0 0.00 0.08 0.08 92 1009.6
20260903034008 73 183 0.0 0.0 0.00 0.08 0.08 92 1009.6
20260903033527 73 183 0.0 0.0 0.00 0.08 0.08 92 1009.6
20260903033107 73 183 0.0 0.0 0.00 0.08 0.08 92 1009.6
20260903032523 73 183 0.0 0.0 0.00 0.08 0.08 91 1009.6
20260903032058 73 183 0.0 0.0 0.00 0.08 0.08 91 1009.6
20260903031519 73 183 0.0 0.0 0.00 0.08 0.08 91 1009.6
20260903031044 74 183 0.0 0.0 0.00 0.08 0.08 91 1009.7
20260903030520 74 183 0.0 0.0 0.00 0.08 0.08 91 1009.6
20260903030109 74 183 0.0 0.0 0.00 0.08 0.08 91 1009.6
20260903025534 74 183 0.0 0.0 0.00 0.08 0.08 91 1009.5
20260903025002 74 183 0.0 0.0 0.00 0.08 0.08 90 1009.5
20260903024522 75 183 0.0 0.0 0.00 0.08 0.08 90 1009.6
20260903024011 75 183 0.0 0.0 0.00 0.08 0.08 90 1009.6
20260903023542 75 183 0.0 0.0 0.00 0.08 0.08 90 1009.5
20260903023058 75 183 0.0 0.0 0.00 0.08 0.08 90 1009.5
20260903022513 76 183 0.0 0.0 0.00 0.08 0.08 90 1009.5
20260903022054 76 183 0.0 0.0 0.00 0.08 0.08 90 1009.4
20260903021504 76 183 0.0 0.0 0.00 0.08 0.08 89 1009.5
20260903021022 76 183 0.0 0.0 0.00 0.08 0.08 88 1009.5
20260903020607 76 183 0.0 0.0 0.00 0.08 0.08 88 1009.4
20260903020045 76 183 0.0 0.0 0.00 0.08 0.08 88 1009.4
20260903015505 77 183 0.0 0.0 0.00 0.08 0.08 89 1009.4
20260903015033 77 183 0.0 0.0 0.00 0.08 0.08 89 1009.4
20260903014553 77 183 0.0 0.0 0.00 0.08 0.08 87 1009.4
20260903014004 77 183 0.0 0.0 0.00 0.08 0.08 87 1009.3
20260903013530 78 183 0.0 0.0 0.00 0.08 0.08 86 1009.3
20260903013019 78 183 0.0 0.0 0.00 0.08 0.08 86 1009.2
20260903012543 78 183 0.0 0.0 0.00 0.08 0.08 86 1009.2
20260903012012 78 183 0.0 0.0 0.00 0.08 0.08 85 1009.1
20260903011534 79 183 0.0 0.0 0.00 0.08 0.08 83 1009.1
20260903011010 79 183 0.0 0.0 0.00 0.08 0.08 81 1009.1
20260903010539 80 183 0.0 0.0 0.00 0.08 0.08 80 1008.9
20260903010100 80 183 0.0 0.0 0.00 0.08 0.08 81 1008.8
20260903005510 80 183 0.0 0.0 0.00 0.08 0.08 79 1008.8
20260903005032 81 183 0.0 0.0 0.00 0.08 0.08 77 1008.8
20260903004550 82 183 0.0 0.0 0.00 0.08 0.08 79 1008.8
20260903004112 82 183 0.0 0.0 0.00 0.08 0.08 73 1008.8
20260903003520 83 183 0.0 0.0 0.00 0.08 0.08 74 1008.9
20260903003055 83 183 0.0 0.0 0.00 0.08 0.08 70 1009.0
20260903002523 84 183 0.0 0.0 0.00 0.08 0.08 73 1008.9
20260903002058 84 183 0.0 0.0 0.00 0.08 0.08 68 1008.9
20260903001509 85 183 0.0 1.0 0.00 0.08 0.08 68 1008.9
20260903001029 85 183 0.0 1.0 0.00 0.08 0.08 66 1008.9
20260903000549 85 183 0.0 2.0 0.00 0.08 0.08 66 1008.9
20260903000111 85 183 0.0 2.0 0.00 0.08 0.08 64 1008.9
20260902235522 86 183 0.0 2.0 0.00 0.08 0.08 64 1008.9
20260902235039 86 183 0.0 3.0 0.00 0.08 0.08 64 1008.9
20260902234602 86 180 0.0 3.0 0.00 0.08 0.08 63 1009.0
20260902234024 87 179 0.0 3.0 0.00 0.08 0.08 63 1009.0
20260902233548 87 179 0.0 3.0 0.00 0.08 0.08 63 1009.0
20260902233017 88 203 0.0 2.0 0.00 0.08 0.08 62 1009.0
20260902232543 88 203 0.0 2.0 0.00 0.08 0.08 62 1009.0
20260902232010 88 202 0.0 3.0 0.00 0.08 0.08 61 1009.0
20260902231551 88 202 1.0 3.0 0.00 0.08 0.08 60 1009.0
20260902231017 89 212 0.0 1.0 0.00 0.08 0.08 60 1009.1
20260902230550 89 233 0.0 2.0 0.00 0.08 0.08 59 1009.0
20260902230014 89 233 0.0 3.0 0.00 0.08 0.08 60 1009.1
20260902225602 89 233 0.0 3.0 0.00 0.08 0.08 60 1009.1
20260902225037 89 232 0.0 3.0 0.00 0.08 0.08 63 1009.1
20260902224604 88 223 0.0 3.0 0.00 0.08 0.08 60 1009.1